Dansville, NY

4:41 PM EST on February 24, 2017 (GMT -0500)
Dansville Municipal

Weather History for KDSV - May, 2014

Change the Weather History Date:

Saturday, May 10, 2014

  Actual Average Record
Temperature  
Mean Temperature 66 °F -  
Max Temperature 77 °F 66 °F 93 °F (1979)
Min Temperature 55 °F 42 °F 26 °F (1966)
Cooling Degree Days 1    
Growing Degree Days 16 (Base 50)    
Moisture  
Dew Point 49 °F    
Average Humidity 55    
Maximum Humidity 84    
Minimum Humidity 26    
Precipitation  
Precipitation 0.08 in - - ()
Sea Level Pressure  
Sea Level Pressure 29.89 in    
Wind  
Wind Speed 7 mph (West)    
Max Wind Speed 15 mph    
Max Gust Speed 25 mph    
Visibility 10 miles    
Events Rain    
Averages and records for this station are not official NWS values.
T = Trace of Precipitation, MM = Missing Value Source: NWS Daily Summary

Daily Weather History Graph

Daily Weather History Graph

Search for Another Location

Airport or City:

Trip Planner

Search our weather history database for the weather conditions in past years. The results will help you decide how hot, cold, wet, or windy it might be!

Date:

Astronomy

May. 10, 2014 Rise Set
Actual Time 5:54 AM EDT 8:20 PM EDT
Civil Twilight 5:22 AM EDT 8:52 PM EDT
Nautical Twilight 4:43 AM EDT 9:32 PM EDT
Astronomical Twilight 3:58 AM EDT 10:16 PM EDT
Moon 4:09 PM EDT (5/10) 3:32 AM EDT (5/10)
Length of Visible Light 15h 30m
Length of Day
14h 26m
Waxing Gibbous, 82% of the Moon is Illuminated
May 10
Waxing Gibbous
May 14
Full
May 21
Last Quarter
May 28
New
Jun 5
First Quarter

Hourly Weather History & Observations

Time (EDT) Temp. Dew Point Humidity Pressure Visibility Wind Dir Wind Speed Gust Speed Precip Events Conditions
12:54 AM 69.1 °F 61.0 °F 75% 29.86 in 9.0 mi South 5.8 mph - 0.03 in Rain Light Rain
1:54 AM 66.9 °F 62.1 °F 84% 29.84 in 9.0 mi SE 6.9 mph - 0.00 in Rain Light Rain
2:54 AM 66.9 °F 61.0 °F 81% 29.85 in 4.0 mi South 5.8 mph - 0.02 in Rain Rain
3:54 AM 64.0 °F 57.0 °F 78% 29.85 in 10.0 mi ESE 8.1 mph - 0.03 in Rain Light Rain
4:54 AM 62.1 °F 55.0 °F 78% 29.85 in 10.0 mi SE 5.8 mph - 0.00 in   Mostly Cloudy
5:54 AM 61.0 °F 55.0 °F 81% 29.87 in 10.0 mi ESE 4.6 mph - N/A   Mostly Cloudy
6:54 AM 63.0 °F 55.0 °F 75% 29.89 in 10.0 mi Variable 5.8 mph - N/A   Mostly Cloudy
7:54 AM 64.9 °F 55.9 °F 73% 29.91 in 10.0 mi Variable 3.5 mph - N/A   Clear
8:54 AM 68.0 °F 53.1 °F 59% 29.91 in 10.0 mi Variable 4.6 mph - N/A   Clear
9:54 AM 71.1 °F 55.0 °F 57% 29.90 in 10.0 mi Variable 4.6 mph - N/A   Partly Cloudy
10:54 AM 73.9 °F 54.0 °F 50% 29.89 in 10.0 mi West 9.2 mph - N/A   Partly Cloudy
11:54 AM 75.9 °F 52.0 °F 43% 29.88 in 10.0 mi Variable 6.9 mph - N/A   Scattered Clouds
12:54 PM 75.9 °F 52.0 °F 43% 29.88 in 10.0 mi West 11.5 mph 17.3 mph N/A   Mostly Cloudy
1:54 PM 75.9 °F 52.0 °F 43% 29.86 in 10.0 mi WNW 12.7 mph 21.9 mph N/A   Scattered Clouds
2:54 PM 75.9 °F 51.1 °F 42% 29.86 in 10.0 mi WNW 12.7 mph 25.3 mph N/A   Partly Cloudy
3:54 PM 75.0 °F 48.9 °F 40% 29.86 in 10.0 mi WSW 8.1 mph 19.6 mph N/A   Scattered Clouds
4:54 PM 73.0 °F 46.0 °F 38% 29.86 in 10.0 mi NW 13.8 mph 20.7 mph N/A   Partly Cloudy
5:54 PM 69.1 °F 45.0 °F 42% 29.89 in 10.0 mi NW 11.5 mph - N/A   Clear
6:54 PM 66.9 °F 32.0 °F 27% 29.90 in 10.0 mi NW 15.0 mph - N/A   Clear
7:54 PM 64.9 °F 28.9 °F 26% 29.91 in 10.0 mi WNW 8.1 mph - N/A   Clear
8:54 PM 63.0 °F 30.0 °F 29% 29.94 in 10.0 mi WNW 4.6 mph - N/A   Clear
9:54 PM 57.9 °F 39.0 °F 49% 29.97 in 10.0 mi North 3.5 mph - N/A   Clear
10:54 PM 59.0 °F 39.0 °F 48% 29.98 in 10.0 mi WNW 3.5 mph - N/A   Clear
11:54 PM 55.0 °F 41.0 °F 59% 29.99 in 9.0 mi Calm Calm - N/A   Clear